Deputado Luiz Eduardo Magalhaes International Airport


Codes: SBSV/SSA
Name: Deputado Luiz Eduardo Magalhaes International Airport
City: Salvador
Country: Brazil
Elevation: 64 ft.
Wikipedia:

Photos at Deputado Luiz Eduardo Magalhaes International Airport


   Photos courtesy of SpottingLog. You can add your own sightings and photos by signing up for a free trial today.



No photos found.

Weather at Deputado Luiz Eduardo Magalhaes International Airport


Time (UTC)DescriptionTempratureWindCloud coverageVisibilityPressureHumidity
16-Jun-2024 03:00Light Rain24°C18 mph, SE69%10000m1019hPa88%
16-Jun-2024 06:00Light Rain24°C18 mph, SE57%10000m1018hPa78%
16-Jun-2024 09:00Few Clouds25°C16 mph, SE22%10000m1018hPa68%
16-Jun-2024 12:00Light Rain26°C13 mph, SE20%10000m1019hPa68%
16-Jun-2024 15:00Light Rain27°C16 mph, SE18%10000m1018hPa61%
16-Jun-2024 18:00Clear Sky26°C16 mph, SE9%10000m1017hPa65%
16-Jun-2024 21:00Clear Sky25°C13 mph, SE2%10000m1017hPa64%
17-Jun-2024 00:00Clear Sky25°C11 mph, SE2%10000m1018hPa71%
17-Jun-2024 03:00Light Rain24°C11 mph, SE45%10000m1017hPa78%
17-Jun-2024 06:00Light Rain24°C11 mph, SE47%7880m1015hPa84%
17-Jun-2024 09:00Moderate Rain24°C11 mph, E100%10000m1015hPa81%
17-Jun-2024 12:00Light Rain26°C9 mph, E80%10000m1017hPa74%
17-Jun-2024 15:00Light Rain26°C11 mph, E42%10000m1016hPa70%
17-Jun-2024 18:00Light Rain27°C13 mph, SE60%10000m1014hPa65%
17-Jun-2024 21:00Clear Sky25°C11 mph, SE3%10000m1015hPa75%
18-Jun-2024 00:00Light Rain25°C13 mph, SE46%10000m1016hPa79%
18-Jun-2024 03:00Light Rain25°C13 mph, SE72%10000m1016hPa73%
18-Jun-2024 06:00Light Rain25°C11 mph, SE84%10000m1015hPa78%
18-Jun-2024 09:00Light Rain25°C11 mph, SE61%10000m1016hPa77%
18-Jun-2024 12:00Light Rain26°C11 mph, SE58%10000m1017hPa76%
18-Jun-2024 15:00Light Rain27°C13 mph, SE20%10000m1016hPa73%
18-Jun-2024 18:00Light Rain26°C13 mph, SE49%10000m1014hPa76%
18-Jun-2024 21:00Light Rain25°C13 mph, SE61%7809m1015hPa82%
19-Jun-2024 00:00Moderate Rain25°C13 mph, SE49%10000m1016hPa83%
19-Jun-2024 03:00Light Rain25°C11 mph, E14%10000m1016hPa81%
19-Jun-2024 06:00Light Rain25°C9 mph, E8%10000m1015hPa80%
19-Jun-2024 09:00Light Rain24°C9 mph, NE5%10000m1016hPa81%
19-Jun-2024 12:00Light Rain25°C13 mph, E38%10000m1018hPa79%
19-Jun-2024 15:00Light Rain27°C16 mph, E43%10000m1017hPa67%
19-Jun-2024 18:00Few Clouds27°C13 mph, E23%10000m1015hPa67%
19-Jun-2024 21:00Few Clouds26°C11 mph, E11%10000m1016hPa73%
20-Jun-2024 00:00Light Rain25°C13 mph, E10%10000m1017hPa74%
20-Jun-2024 03:00Clear Sky25°C13 mph, E1%10000m1016hPa69%
20-Jun-2024 06:00Clear Sky25°C11 mph, E3%10000m1015hPa70%
20-Jun-2024 09:00Light Rain25°C9 mph, SE22%10000m1016hPa72%
20-Jun-2024 12:00Light Rain25°C11 mph, SE22%10000m1018hPa77%
20-Jun-2024 15:00Light Rain27°C11 mph, SE15%10000m1017hPa69%
20-Jun-2024 18:00Few Clouds26°C13 mph, SE18%10000m1015hPa68%
20-Jun-2024 21:00Clear Sky25°C11 mph, SE6%10000m1016hPa71%
21-Jun-2024 00:00Light Rain25°C13 mph, SE22%10000m1018hPa82%